Time,TemperatureF,DewpointF,PressureIn,WindDirection,WindDirectionDegrees,WindSpeedMPH,WindSpeedGustMPH,Humidity,HourlyPrecipIn,Conditions,Clouds,dailyrainin,SoftwareType,DateUTC
2013-10-10 00:01:00,56.1,50.0,30.36,ESE,112,11.0,17.0,81,0.00,,,0.00,Rainwise IP-100,2013-10-10 04:01:00,
2013-10-10 00:02:00,56.0,50.0,30.36,East,90,13.5,14.0,81,0.00,,,0.00,Rainwise IP-100,2013-10-10 04:02:00,
2013-10-10 00:07:00,56.0,50.0,30.36,ESE,112,6.5,16.0,81,0.00,,,0.00,Rainwise IP-100,2013-10-10 04:07:00,
2013-10-10 00:12:00,56.0,50.0,30.36,East,90,5.1,16.0,81,0.00,,,0.00,Rainwise IP-100,2013-10-10 04:12:00,
2013-10-10 00:17:00,56.0,50.0,30.36,ENE,67,8.2,13.0,81,0.00,,,0.00,Rainwise IP-100,2013-10-10 04:17:00,
2013-10-10 00:22:00,56.0,50.0,30.36,ESE,112,7.9,20.0,81,0.00,,,0.00,Rainwise IP-100,2013-10-10 04:22:00,
2013-10-10 00:27:00,55.9,50.0,30.36,ENE,67,7.7,14.0,81,0.00,,,0.00,Rainwise IP-100,2013-10-10 04:27:00,
2013-10-10 00:32:00,55.9,50.0,30.36,WSW,247,2.6,19.0,81,0.00,,,0.00,Rainwise IP-100,2013-10-10 04:32:00,
2013-10-10 00:37:00,55.9,50.0,30.34,East,90,7.5,16.0,81,0.00,,,0.00,Rainwise IP-100,2013-10-10 04:37:00,
2013-10-10 00:42:00,55.8,50.0,30.35,ESE,112,10.7,13.0,81,0.00,,,0.00,Rainwise IP-100,2013-10-10 04:42:00,
2013-10-10 00:47:00,55.8,50.0,30.35,SE,135,8.9,19.0,81,0.00,,,0.00,Rainwise IP-100,2013-10-10 04:47:00,
2013-10-10 00:52:00,55.8,50.0,30.34,NNE,22,7.0,17.0,81,0.00,,,0.00,Rainwise IP-100,2013-10-10 04:52:00,
2013-10-10 00:57:00,55.8,50.0,30.34,East,90,2.6,19.0,81,0.00,,,0.00,Rainwise IP-100,2013-10-10 04:57:00,
2013-10-10 01:02:00,55.9,50.0,30.34,ESE,112,10.7,17.0,81,0.00,,,0.00,Rainwise IP-100,2013-10-10 05:02:00,
2013-10-10 01:07:00,55.8,50.0,30.34,ENE,67,12.6,15.0,81,0.00,,,0.00,Rainwise IP-100,2013-10-10 05:07:00,
2013-10-10 01:12:00,55.8,50.0,30.34,East,90,14.0,19.0,81,0.00,,,0.00,Rainwise IP-100,2013-10-10 05:12:00,
2013-10-10 01:17:00,55.8,50.0,30.34,ESE,112,13.3,17.0,81,0.00,,,0.00,Rainwise IP-100,2013-10-10 05:17:00,
2013-10-10 01:22:00,55.8,50.0,30.34,East,90,8.2,17.0,81,0.00,,,0.00,Rainwise IP-100,2013-10-10 05:22:00,
2013-10-10 01:27:00,55.8,50.0,30.34,ESE,112,7.7,18.0,81,0.00,,,0.00,Rainwise IP-100,2013-10-10 05:27:00,
2013-10-10 01:32:00,55.8,50.0,30.34,ESE,112,5.1,18.0,81,0.00,,,0.00,Rainwise IP-100,2013-10-10 05:32:00,
2013-10-10 01:37:00,55.8,50.0,30.34,ENE,67,16.3,18.0,81,0.00,,,0.00,Rainwise IP-100,2013-10-10 05:37:00,
2013-10-10 01:42:00,55.8,50.0,30.34,ESE,112,5.1,17.0,81,0.00,,,0.00,Rainwise IP-100,2013-10-10 05:42:00,
2013-10-10 01:47:00,55.7,50.0,30.34,ENE,67,9.1,16.0,82,0.00,,,0.00,Rainwise IP-100,2013-10-10 05:47:00,
2013-10-10 01:52:00,55.7,50.0,30.34,East,90,4.4,14.0,82,0.00,,,0.00,Rainwise IP-100,2013-10-10 05:52:00,
2013-10-10 01:57:00,55.6,50.0,30.34,ESE,112,8.9,18.0,82,0.00,,,0.00,Rainwise IP-100,2013-10-10 05:57:00,
2013-10-10 02:02:00,55.5,50.0,30.34,NNE,22,5.4,16.0,82,0.00,,,0.00,Rainwise IP-100,2013-10-10 06:02:00,
2013-10-10 02:07:00,55.4,50.0,30.34,East,90,7.2,17.0,82,0.00,,,0.00,Rainwise IP-100,2013-10-10 06:07:00,
2013-10-10 02:12:00,55.4,50.0,30.33,East,90,12.4,16.0,82,0.00,,,0.00,Rainwise IP-100,2013-10-10 06:12:00,
2013-10-10 02:17:00,55.4,50.0,30.33,East,90,7.0,16.0,82,0.00,,,0.00,Rainwise IP-100,2013-10-10 06:17:00,
2013-10-10 02:22:00,55.4,50.0,30.33,ESE,112,7.7,19.0,82,0.00,,,0.00,Rainwise IP-100,2013-10-10 06:22:00,
2013-10-10 02:27:00,55.6,50.0,30.34,ENE,67,8.9,18.0,82,0.00,,,0.00,Rainwise IP-100,2013-10-10 06:27:00,
2013-10-10 02:32:00,55.6,50.0,30.33,East,90,14.9,16.0,82,0.00,,,0.00,Rainwise IP-100,2013-10-10 06:32:00,
2013-10-10 02:37:00,55.7,50.0,30.32,ESE,112,7.2,18.0,82,0.00,,,0.00,Rainwise IP-100,2013-10-10 06:37:00,
2013-10-10 02:42:00,55.7,50.0,30.33,ENE,67,6.8,17.0,82,0.00,,,0.00,Rainwise IP-100,2013-10-10 06:42:00,
2013-10-10 02:47:00,55.7,50.0,30.32,ESE,112,8.2,22.0,82,0.00,,,0.00,Rainwise IP-100,2013-10-10 06:47:00,
2013-10-10 02:52:00,55.8,50.0,30.32,East,90,10.5,21.0,82,0.00,,,0.00,Rainwise IP-100,2013-10-10 06:52:00,
2013-10-10 02:57:00,55.7,50.0,30.32,East,90,7.9,15.0,82,0.00,,,0.00,Rainwise IP-100,2013-10-10 06:57:00,
2013-10-10 03:02:00,55.7,50.0,30.32,ESE,112,5.1,15.0,82,0.00,,,0.00,Rainwise IP-100,2013-10-10 07:02:00,
2013-10-10 03:07:00,55.6,50.0,30.32,ESE,112,7.5,20.0,82,0.00,,,0.00,Rainwise IP-100,2013-10-10 07:07:00,
2013-10-10 03:12:00,55.7,50.0,30.32,East,90,9.3,16.0,82,0.00,,,0.00,Rainwise IP-100,2013-10-10 07:12:00,
2013-10-10 03:17:00,55.6,50.0,30.32,East,90,14.7,18.0,82,0.00,,,0.00,Rainwise IP-100,2013-10-10 07:17:00,
2013-10-10 03:22:00,55.6,50.0,30.32,ESE,112,9.8,17.0,82,0.00,,,0.00,Rainwise IP-100,2013-10-10 07:22:00,
2013-10-10 03:27:00,55.5,50.0,30.32,ENE,67,8.2,19.0,82,0.00,,,0.00,Rainwise IP-100,2013-10-10 07:27:00,
2013-10-10 03:32:00,55.5,50.0,30.32,ENE,67,6.8,22.0,82,0.00,,,0.00,Rainwise IP-100,2013-10-10 07:32:00,
2013-10-10 03:37:00,55.5,50.0,30.32,East,90,6.1,22.0,82,0.00,,,0.00,Rainwise IP-100,2013-10-10 07:37:00,
2013-10-10 03:42:00,55.6,50.0,30.32,ESE,112,11.9,15.0,82,0.00,,,0.00,Rainwise IP-100,2013-10-10 07:42:00,
2013-10-10 03:47:00,55.7,50.0,30.32,ESE,112,6.8,23.0,82,0.00,,,0.00,Rainwise IP-100,2013-10-10 07:47:00,
2013-10-10 03:52:00,55.7,50.0,30.32,ESE,112,13.3,19.0,82,0.00,,,0.00,Rainwise IP-100,2013-10-10 07:52:00,
2013-10-10 03:57:00,55.7,50.0,30.32,SSE,157,4.7,17.0,81,0.00,,,0.00,Rainwise IP-100,2013-10-10 07:57:00,
2013-10-10 04:02:00,55.8,50.0,30.32,ESE,112,14.7,17.0,81,0.00,,,0.00,Rainwise IP-100,2013-10-10 08:02:00,
2013-10-10 04:07:00,55.8,50.0,30.32,ENE,67,4.9,15.0,81,0.00,,,0.00,Rainwise IP-100,2013-10-10 08:07:00,
2013-10-10 04:12:00,55.9,50.0,30.32,SE,135,10.0,17.0,82,0.00,,,0.00,Rainwise IP-100,2013-10-10 08:12:00,
2013-10-10 04:17:00,55.9,50.0,30.31,ENE,67,5.8,17.0,82,0.00,,,0.00,Rainwise IP-100,2013-10-10 08:17:00,
2013-10-10 04:22:00,55.9,50.0,30.32,ENE,67,11.2,18.0,82,0.00,,,0.00,Rainwise IP-100,2013-10-10 08:22:00,
2013-10-10 04:27:00,55.9,50.0,30.32,ENE,67,14.5,21.0,82,0.00,,,0.00,Rainwise IP-100,2013-10-10 08:27:00,
2013-10-10 04:32:00,55.9,50.0,30.32,East,90,14.5,19.0,82,0.00,,,0.00,Rainwise IP-100,2013-10-10 08:32:00,
2013-10-10 04:37:00,55.9,50.0,30.33,NNE,22,4.4,18.0,82,0.00,,,0.00,Rainwise IP-100,2013-10-10 08:37:00,
2013-10-10 04:42:00,56.0,50.0,30.32,ESE,112,4.7,19.0,82,0.00,,,0.00,Rainwise IP-100,2013-10-10 08:42:00,
2013-10-10 04:47:00,56.0,50.0,30.32,ESE,112,5.8,14.0,83,0.00,,,0.00,Rainwise IP-100,2013-10-10 08:47:00,
2013-10-10 04:52:00,56.0,50.0,30.32,East,90,8.6,15.0,83,0.00,,,0.00,Rainwise IP-100,2013-10-10 08:52:00,
2013-10-10 04:57:00,56.1,50.0,30.32,ENE,67,3.0,11.0,83,0.00,,,0.00,Rainwise IP-100,2013-10-10 08:57:00,
2013-10-10 05:02:00,56.1,51.0,30.32,East,90,9.3,19.0,84,0.00,,,0.00,Rainwise IP-100,2013-10-10 09:02:00,
2013-10-10 05:07:00,56.1,51.0,30.32,ENE,67,11.4,17.0,84,0.00,,,0.00,Rainwise IP-100,2013-10-10 09:07:00,
2013-10-10 05:12:00,56.1,51.0,30.32,ESE,112,11.4,17.0,84,0.00,,,0.00,Rainwise IP-100,2013-10-10 09:12:00,
2013-10-10 05:17:00,56.1,51.0,30.31,ESE,112,6.5,19.0,85,0.00,,,0.00,Rainwise IP-100,2013-10-10 09:17:00,
2013-10-10 05:22:00,56.1,51.0,30.31,ENE,67,10.3,18.0,85,0.00,,,0.00,Rainwise IP-100,2013-10-10 09:22:00,
2013-10-10 05:27:00,56.2,51.0,30.31,ENE,67,15.4,16.0,85,0.00,,,0.00,Rainwise IP-100,2013-10-10 09:27:00,
2013-10-10 05:32:00,56.2,51.0,30.31,ESE,112,12.1,21.0,85,0.00,,,0.00,Rainwise IP-100,2013-10-10 09:32:00,
2013-10-10 05:37:00,56.3,51.0,30.31,ENE,67,6.1,16.0,85,0.00,,,0.00,Rainwise IP-100,2013-10-10 09:37:00,
2013-10-10 05:42:00,56.3,51.0,30.30,East,90,17.0,17.0,85,0.00,,,0.00,Rainwise IP-100,2013-10-10 09:42:00,
2013-10-10 05:47:00,56.3,51.0,30.31,East,90,7.5,22.0,85,0.00,,,0.00,Rainwise IP-100,2013-10-10 09:47:00,
2013-10-10 05:52:00,56.3,51.0,30.31,East,90,11.4,20.0,85,0.00,,,0.00,Rainwise IP-100,2013-10-10 09:52:00,
2013-10-10 05:57:00,56.3,51.0,30.31,East,90,4.9,15.0,85,0.00,,,0.00,Rainwise IP-100,2013-10-10 09:57:00,
2013-10-10 06:02:00,56.3,51.0,30.31,ESE,112,5.1,16.0,85,0.00,,,0.00,Rainwise IP-100,2013-10-10 10:02:00,
2013-10-10 06:07:00,56.3,51.0,30.32,ESE,112,6.5,17.0,85,0.00,,,0.00,Rainwise IP-100,2013-10-10 10:07:00,
2013-10-10 06:12:00,56.3,51.0,30.31,ENE,67,7.9,13.0,85,0.00,,,0.00,Rainwise IP-100,2013-10-10 10:12:00,
2013-10-10 06:17:00,56.3,51.0,30.32,East,90,2.1,14.0,85,0.00,,,0.00,Rainwise IP-100,2013-10-10 10:17:00,
2013-10-10 06:22:00,56.4,52.0,30.31,NNE,22,2.3,17.0,85,0.00,,,0.00,Rainwise IP-100,2013-10-10 10:22:00,
2013-10-10 06:27:00,56.4,53.0,30.31,ESE,112,8.4,15.0,86,0.00,,,0.00,Rainwise IP-100,2013-10-10 10:27:00,
2013-10-10 06:32:00,56.5,53.0,30.31,ESE,112,5.8,17.0,86,0.00,,,0.00,Rainwise IP-100,2013-10-10 10:32:00,
2013-10-10 06:37:00,56.5,53.0,30.31,ENE,67,8.9,19.0,86,0.00,,,0.00,Rainwise IP-100,2013-10-10 10:37:00,
2013-10-10 06:42:00,56.5,53.0,30.29,ESE,112,3.7,19.0,86,0.00,,,0.00,Rainwise IP-100,2013-10-10 10:42:00,
2013-10-10 06:47:00,56.6,53.0,30.30,SE,135,4.9,17.0,86,0.00,,,0.00,Rainwise IP-100,2013-10-10 10:47:00,
2013-10-10 06:52:00,56.6,53.0,30.30,SE,135,5.8,16.0,86,0.00,,,0.00,Rainwise IP-100,2013-10-10 10:52:00,
2013-10-10 06:57:00,56.7,53.0,30.30,East,90,11.7,20.0,86,0.00,,,0.00,Rainwise IP-100,2013-10-10 10:57:00,
2013-10-10 07:02:00,56.7,53.0,30.30,ESE,112,12.1,16.0,86,0.00,,,0.00,Rainwise IP-100,2013-10-10 11:02:00,
2013-10-10 07:07:00,56.7,53.0,30.30,East,90,10.0,21.0,86,0.00,,,0.00,Rainwise IP-100,2013-10-10 11:07:00,
2013-10-10 07:12:00,56.7,53.0,30.30,ENE,67,4.0,19.0,86,0.00,,,0.00,Rainwise IP-100,2013-10-10 11:12:00,
2013-10-10 07:17:00,56.7,53.0,30.31,ENE,67,15.4,19.0,86,0.00,,,0.00,Rainwise IP-100,2013-10-10 11:17:00,
2013-10-10 07:22:00,56.7,53.0,30.31,East,90,13.5,15.0,87,0.00,,,0.00,Rainwise IP-100,2013-10-10 11:22:00,
2013-10-10 07:27:00,56.7,53.0,30.31,ENE,67,7.0,16.0,87,0.00,,,0.00,Rainwise IP-100,2013-10-10 11:27:00,
2013-10-10 07:32:00,56.8,53.0,30.31,ESE,112,4.2,17.0,87,0.00,,,0.00,Rainwise IP-100,2013-10-10 11:32:00,
2013-10-10 07:37:00,56.9,53.0,30.31,East,90,18.2,18.2,87,0.00,,,0.00,Rainwise IP-100,2013-10-10 11:37:00,
2013-10-10 07:42:00,56.9,53.0,30.31,East,90,7.7,19.0,87,0.00,,,0.00,Rainwise IP-100,2013-10-10 11:42:00,
2013-10-10 07:47:00,57.0,53.0,30.31,East,90,11.0,14.0,87,0.00,,,0.00,Rainwise IP-100,2013-10-10 11:47:00,
2013-10-10 07:52:00,57.2,53.0,30.31,East,90,8.6,16.0,87,0.00,,,0.00,Rainwise IP-100,2013-10-10 11:52:00,
2013-10-10 07:57:00,57.2,53.0,30.31,ESE,112,8.6,19.0,87,0.00,,,0.00,Rainwise IP-100,2013-10-10 11:57:00,
2013-10-10 08:02:00,57.4,54.0,30.30,NE,45,6.1,17.0,87,0.00,,,0.00,Rainwise IP-100,2013-10-10 12:02:00,
2013-10-10 08:07:00,57.5,54.0,30.30,ENE,67,10.7,18.0,87,0.00,,,0.00,Rainwise IP-100,2013-10-10 12:07:00,
2013-10-10 08:12:00,57.6,54.0,30.31,ESE,112,5.4,17.0,87,0.00,,,0.00,Rainwise IP-100,2013-10-10 12:12:00,
2013-10-10 08:17:00,57.7,54.0,30.31,East,90,11.0,16.0,87,0.00,,,0.00,Rainwise IP-100,2013-10-10 12:17:00,
2013-10-10 08:22:00,57.8,54.0,30.30,East,90,12.1,19.0,87,0.00,,,0.00,Rainwise IP-100,2013-10-10 12:22:00,
2013-10-10 08:27:00,57.8,54.0,30.31,ESE,112,9.1,19.0,88,0.00,,,0.00,Rainwise IP-100,2013-10-10 12:27:00,
2013-10-10 08:32:00,57.7,54.0,30.30,ENE,67,4.4,18.0,87,0.00,,,0.00,Rainwise IP-100,2013-10-10 12:32:00,
2013-10-10 08:37:00,57.7,54.0,30.31,ENE,67,14.0,16.0,87,0.00,,,0.00,Rainwise IP-100,2013-10-10 12:37:00,
2013-10-10 08:42:00,57.7,54.0,30.31,ENE,67,11.0,19.0,87,0.00,,,0.00,Rainwise IP-100,2013-10-10 12:42:00,
2013-10-10 08:47:00,57.7,54.0,30.31,ENE,67,6.5,16.0,87,0.00,,,0.00,Rainwise IP-100,2013-10-10 12:47:00,
2013-10-10 08:52:00,57.7,54.0,30.31,ENE,67,9.6,16.0,87,0.00,,,0.00,Rainwise IP-100,2013-10-10 12:52:00,
2013-10-10 08:57:00,57.7,54.0,30.30,East,90,4.4,17.0,87,0.00,,,0.00,Rainwise IP-100,2013-10-10 12:57:00,
2013-10-10 09:02:00,57.8,54.0,30.31,East,90,9.6,19.0,87,0.00,,,0.00,Rainwise IP-100,2013-10-10 13:02:00,
2013-10-10 09:07:00,57.9,54.0,30.31,ENE,67,10.3,21.0,87,0.00,,,0.00,Rainwise IP-100,2013-10-10 13:07:00,
2013-10-10 09:12:00,57.9,54.0,30.30,ESE,112,4.0,18.0,87,0.00,,,0.00,Rainwise IP-100,2013-10-10 13:12:00,
2013-10-10 09:17:00,57.9,54.0,30.31,ESE,112,10.0,18.0,87,0.00,,,0.00,Rainwise IP-100,2013-10-10 13:17:00,
2013-10-10 09:22:00,57.9,54.0,30.31,ESE,112,8.4,19.0,87,0.00,,,0.00,Rainwise IP-100,2013-10-10 13:22:00,
2013-10-10 09:27:00,58.0,54.0,30.31,ESE,112,4.4,16.0,87,0.00,,,0.00,Rainwise IP-100,2013-10-10 13:27:00,
2013-10-10 09:32:00,58.1,54.0,30.30,ESE,112,10.7,17.0,87,0.00,,,0.00,Rainwise IP-100,2013-10-10 13:32:00,
2013-10-10 09:37:00,58.1,54.0,30.31,ENE,67,17.0,17.0,87,0.00,,,0.00,Rainwise IP-100,2013-10-10 13:37:00,
2013-10-10 09:42:00,58.2,54.0,30.30,East,90,5.1,21.0,87,0.00,,,0.00,Rainwise IP-100,2013-10-10 13:42:00,
2013-10-10 09:47:00,58.3,54.0,30.30,ESE,112,4.9,15.0,87,0.00,,,0.00,Rainwise IP-100,2013-10-10 13:47:00,
2013-10-10 09:52:00,58.5,55.0,30.29,SSE,157,8.4,20.0,87,0.00,,,0.00,Rainwise IP-100,2013-10-10 13:52:00,
2013-10-10 09:57:00,58.7,55.0,30.29,ESE,112,5.8,18.0,87,0.00,,,0.00,Rainwise IP-100,2013-10-10 13:57:00,
2013-10-10 10:02:00,58.8,55.0,30.29,ESE,112,4.4,16.0,87,0.00,,,0.00,Rainwise IP-100,2013-10-10 14:02:00,
2013-10-10 10:07:00,58.9,54.0,30.29,ESE,112,14.0,19.0,86,0.00,,,0.00,Rainwise IP-100,2013-10-10 14:07:00,
2013-10-10 10:12:00,59.0,54.0,30.29,ENE,67,3.5,17.0,86,0.00,,,0.00,Rainwise IP-100,2013-10-10 14:12:00,
2013-10-10 10:17:00,59.2,54.0,30.29,ENE,67,6.3,19.0,86,0.00,,,0.00,Rainwise IP-100,2013-10-10 14:17:00,
2013-10-10 10:22:00,59.4,55.0,30.29,East,90,5.8,21.0,86,0.00,,,0.00,Rainwise IP-100,2013-10-10 14:22:00,
2013-10-10 10:27:00,59.5,55.0,30.29,ESE,112,7.0,20.0,86,0.00,,,0.00,Rainwise IP-100,2013-10-10 14:27:00,
2013-10-10 10:32:00,59.6,55.0,30.29,ESE,112,3.5,17.0,86,0.00,,,0.00,Rainwise IP-100,2013-10-10 14:32:00,
2013-10-10 10:37:00,59.7,55.0,30.29,East,90,14.0,19.0,86,0.00,,,0.00,Rainwise IP-100,2013-10-10 14:37:00,
2013-10-10 10:42:00,59.7,55.0,30.29,East,90,10.0,16.0,86,0.00,,,0.00,Rainwise IP-100,2013-10-10 14:42:00,
2013-10-10 10:47:00,59.7,55.0,30.29,NE,45,11.9,15.0,86,0.00,,,0.00,Rainwise IP-100,2013-10-10 14:47:00,
2013-10-10 10:52:00,59.8,55.0,30.29,ESE,112,3.5,14.0,86,0.00,,,0.00,Rainwise IP-100,2013-10-10 14:52:00,
2013-10-10 10:57:00,59.8,55.0,30.29,ENE,67,9.8,15.0,86,0.00,,,0.00,Rainwise IP-100,2013-10-10 14:57:00,
2013-10-10 11:02:00,60.0,56.0,30.28,ESE,112,8.6,15.0,87,0.00,,,0.00,Rainwise IP-100,2013-10-10 15:02:00,
2013-10-10 11:07:00,60.1,56.0,30.28,ENE,67,10.7,18.0,87,0.00,,,0.00,Rainwise IP-100,2013-10-10 15:07:00,
2013-10-10 11:12:00,60.3,56.0,30.28,ESE,112,11.2,16.0,87,0.00,,,0.00,Rainwise IP-100,2013-10-10 15:12:00,
2013-10-10 11:17:00,60.3,56.0,30.28,ESE,112,9.3,16.0,87,0.00,,,0.00,Rainwise IP-100,2013-10-10 15:17:00,
2013-10-10 11:22:00,60.4,56.0,30.28,East,90,11.9,18.0,87,0.00,,,0.00,Rainwise IP-100,2013-10-10 15:22:00,
2013-10-10 11:27:00,60.7,56.0,30.27,ESE,112,11.4,15.0,86,0.00,,,0.00,Rainwise IP-100,2013-10-10 15:27:00,
2013-10-10 11:32:00,60.9,56.0,30.28,ESE,112,10.0,19.0,85,0.00,,,0.00,Rainwise IP-100,2013-10-10 15:32:00,
2013-10-10 11:37:00,60.9,56.0,30.27,ENE,67,12.4,17.0,85,0.00,,,0.00,Rainwise IP-100,2013-10-10 15:37:00,
2013-10-10 11:42:00,60.8,56.0,30.28,ESE,112,14.7,20.0,85,0.00,,,0.00,Rainwise IP-100,2013-10-10 15:42:00,
2013-10-10 11:47:00,60.8,56.0,30.28,East,90,11.0,18.0,85,0.00,,,0.00,Rainwise IP-100,2013-10-10 15:47:00,
2013-10-10 11:52:00,60.8,56.0,30.27,ESE,112,9.6,15.0,85,0.00,,,0.00,Rainwise IP-100,2013-10-10 15:52:00,
2013-10-10 11:57:00,60.9,56.0,30.27,ESE,112,8.6,17.0,85,0.00,,,0.00,Rainwise IP-100,2013-10-10 15:57:00,
2013-10-10 12:02:00,61.0,56.0,30.27,East,90,14.0,14.0,85,0.00,,,0.00,Rainwise IP-100,2013-10-10 16:02:00,
2013-10-10 12:07:00,61.1,56.0,30.27,ESE,112,5.4,18.0,85,0.00,,,0.00,Rainwise IP-100,2013-10-10 16:07:00,
2013-10-10 12:12:00,61.1,56.0,30.27,SSE,157,3.3,19.0,85,0.00,,,0.00,Rainwise IP-100,2013-10-10 16:12:00,
2013-10-10 12:17:00,61.1,56.0,30.27,ESE,112,11.4,18.0,85,0.00,,,0.00,Rainwise IP-100,2013-10-10 16:17:00,
2013-10-10 12:22:00,61.1,56.0,30.27,ESE,112,16.6,18.0,85,0.00,,,0.00,Rainwise IP-100,2013-10-10 16:22:00,
2013-10-10 12:27:00,61.1,56.0,30.27,ESE,112,7.9,20.0,85,0.00,,,0.00,Rainwise IP-100,2013-10-10 16:27:00,
2013-10-10 12:32:00,61.0,56.0,30.27,East,90,14.7,17.0,85,0.00,,,0.00,Rainwise IP-100,2013-10-10 16:32:00,
2013-10-10 12:37:00,60.9,56.0,30.27,ESE,112,5.8,18.0,85,0.00,,,0.00,Rainwise IP-100,2013-10-10 16:37:00,
2013-10-10 12:42:00,60.9,56.0,30.27,ESE,112,11.2,16.0,85,0.00,,,0.00,Rainwise IP-100,2013-10-10 16:42:00,
2013-10-10 12:47:00,60.9,56.0,30.26,ENE,67,8.4,15.0,85,0.00,,,0.00,Rainwise IP-100,2013-10-10 16:47:00,
2013-10-10 12:52:00,60.9,56.0,30.26,ESE,112,10.5,16.0,85,0.00,,,0.00,Rainwise IP-100,2013-10-10 16:52:00,
2013-10-10 12:57:00,61.0,56.0,30.26,East,90,6.1,17.0,86,0.00,,,0.00,Rainwise IP-100,2013-10-10 16:57:00,
2013-10-10 13:02:00,60.9,56.0,30.25,ESE,112,9.8,19.0,86,0.00,,,0.00,Rainwise IP-100,2013-10-10 17:02:00,
2013-10-10 13:07:00,60.6,56.0,30.25,ESE,112,9.6,20.0,87,0.00,,,0.00,Rainwise IP-100,2013-10-10 17:07:00,
2013-10-10 13:12:00,60.4,57.0,30.25,ESE,112,9.3,18.0,88,0.00,,,0.00,Rainwise IP-100,2013-10-10 17:12:00,
2013-10-10 13:17:00,60.4,57.0,30.24,East,90,13.5,15.0,89,0.00,,,0.00,Rainwise IP-100,2013-10-10 17:17:00,
2013-10-10 13:22:00,60.5,57.0,30.25,ENE,67,7.9,17.0,89,0.00,,,0.00,Rainwise IP-100,2013-10-10 17:22:00,
2013-10-10 13:27:00,60.5,57.0,30.25,ESE,112,10.7,18.0,90,0.00,,,0.00,Rainwise IP-100,2013-10-10 17:27:00,
2013-10-10 13:32:00,60.6,57.0,30.25,East,90,6.5,16.0,90,0.00,,,0.00,Rainwise IP-100,2013-10-10 17:32:00,
2013-10-10 13:37:00,60.7,57.0,30.25,ENE,67,6.5,15.0,89,0.00,,,0.00,Rainwise IP-100,2013-10-10 17:37:00,
2013-10-10 13:42:00,60.8,57.0,30.24,ESE,112,9.1,16.0,89,0.00,,,0.00,Rainwise IP-100,2013-10-10 17:42:00,
2013-10-10 13:47:00,60.9,57.0,30.24,SSE,157,6.8,14.0,89,0.00,,,0.00,Rainwise IP-100,2013-10-10 17:47:00,
2013-10-10 13:52:00,61.1,57.0,30.24,SE,135,3.5,16.0,89,0.00,,,0.00,Rainwise IP-100,2013-10-10 17:52:00,
2013-10-10 13:57:00,61.3,57.0,30.24,ESE,112,9.8,14.0,89,0.00,,,0.00,Rainwise IP-100,2013-10-10 17:57:00,
2013-10-10 14:02:00,61.5,57.0,30.24,ENE,67,8.6,15.0,88,0.00,,,0.00,Rainwise IP-100,2013-10-10 18:02:00,
2013-10-10 14:07:00,61.6,57.0,30.23,ENE,67,5.6,18.0,88,0.00,,,0.00,Rainwise IP-100,2013-10-10 18:07:00,
2013-10-10 14:12:00,61.8,57.0,30.24,ESE,112,9.3,19.0,87,0.00,,,0.00,Rainwise IP-100,2013-10-10 18:12:00,
2013-10-10 14:17:00,62.0,58.0,30.24,North,360,5.6,14.0,87,0.00,,,0.00,Rainwise IP-100,2013-10-10 18:17:00,
2013-10-10 14:22:00,62.1,58.0,30.24,ENE,67,14.2,21.0,87,0.00,,,0.00,Rainwise IP-100,2013-10-10 18:22:00,
2013-10-10 14:27:00,62.2,58.0,30.23,ESE,112,10.0,20.0,87,0.00,,,0.00,Rainwise IP-100,2013-10-10 18:27:00,
2013-10-10 14:32:00,62.2,57.0,30.22,ESE,112,13.8,15.0,86,0.00,,,0.00,Rainwise IP-100,2013-10-10 18:32:00,
2013-10-10 14:37:00,62.4,58.0,30.22,East,90,11.0,18.0,86,0.00,,,0.00,Rainwise IP-100,2013-10-10 18:37:00,
2013-10-10 14:42:00,62.5,58.0,30.22,ESE,112,10.0,21.0,86,0.00,,,0.00,Rainwise IP-100,2013-10-10 18:42:00,
2013-10-10 14:47:00,62.7,57.0,30.22,ESE,112,7.9,16.0,85,0.00,,,0.00,Rainwise IP-100,2013-10-10 18:47:00,
2013-10-10 14:52:00,62.9,58.0,30.22,East,90,3.5,20.0,85,0.00,,,0.00,Rainwise IP-100,2013-10-10 18:52:00,
2013-10-10 14:57:00,63.1,58.0,30.22,ESE,112,10.7,20.0,84,0.00,,,0.00,Rainwise IP-100,2013-10-10 18:57:00,
2013-10-10 15:02:00,63.3,58.0,30.22,SE,135,7.9,19.0,84,0.00,,,0.00,Rainwise IP-100,2013-10-10 19:02:00,
2013-10-10 15:08:00,63.5,59.0,30.22,ESE,112,6.8,16.0,84,0.00,,,0.00,Rainwise IP-100,2013-10-10 19:08:00,
2013-10-10 15:13:00,63.6,58.0,30.21,NNE,22,3.3,21.0,83,0.00,,,0.00,Rainwise IP-100,2013-10-10 19:13:00,
2013-10-10 15:18:00,63.6,58.0,30.21,East,90,9.3,20.0,83,0.00,,,0.00,Rainwise IP-100,2013-10-10 19:18:00,
2013-10-10 15:23:00,63.7,58.0,30.21,ESE,112,6.8,16.0,83,0.00,,,0.00,Rainwise IP-100,2013-10-10 19:23:00,
2013-10-10 15:28:00,63.9,59.0,30.21,East,90,11.9,20.0,83,0.00,,,0.00,Rainwise IP-100,2013-10-10 19:28:00,
2013-10-10 15:33:00,64.0,58.0,30.21,East,90,22.2,22.2,82,0.00,,,0.00,Rainwise IP-100,2013-10-10 19:33:00,
2013-10-10 15:38:00,64.0,58.0,30.21,East,90,8.6,23.0,82,0.00,,,0.00,Rainwise IP-100,2013-10-10 19:38:00,
2013-10-10 15:43:00,64.0,58.0,30.20,ENE,67,13.5,20.0,82,0.00,,,0.00,Rainwise IP-100,2013-10-10 19:43:00,
2013-10-10 15:48:00,64.0,58.0,30.20,ESE,112,11.0,22.0,82,0.00,,,0.00,Rainwise IP-100,2013-10-10 19:48:00,
2013-10-10 15:53:00,64.0,58.0,30.20,East,90,13.1,15.0,82,0.00,,,0.00,Rainwise IP-100,2013-10-10 19:53:00,
2013-10-10 15:58:00,64.0,58.0,30.20,ESE,112,12.8,17.0,82,0.00,,,0.00,Rainwise IP-100,2013-10-10 19:58:00,
2013-10-10 16:03:00,64.0,58.0,30.21,ESE,112,18.0,18.0,82,0.00,,,0.00,Rainwise IP-100,2013-10-10 20:03:00,
2013-10-10 16:08:00,64.0,58.0,30.20,ESE,112,7.2,18.0,82,0.00,,,0.00,Rainwise IP-100,2013-10-10 20:08:00,
2013-10-10 16:13:00,63.9,58.0,30.20,ESE,112,9.1,16.0,82,0.00,,,0.00,Rainwise IP-100,2013-10-10 20:13:00,
2013-10-10 16:18:00,63.9,58.0,30.19,East,90,8.6,17.0,82,0.00,,,0.00,Rainwise IP-100,2013-10-10 20:18:00,
2013-10-10 16:23:00,63.9,58.0,30.19,SSE,157,7.5,13.0,82,0.00,,,0.00,Rainwise IP-100,2013-10-10 20:23:00,
2013-10-10 16:28:00,64.0,58.0,30.19,East,90,7.7,14.0,82,0.00,,,0.00,Rainwise IP-100,2013-10-10 20:28:00,
2013-10-10 16:31:00,64.0,59.0,30.19,ENE,67,2.6,13.0,83,0.00,,,0.00,Rainwise IP-100,2013-10-10 20:31:00,
2013-10-10 16:36:00,64.0,59.0,30.19,ESE,112,5.1,13.0,83,0.00,,,0.00,Rainwise IP-100,2013-10-10 20:36:00,
2013-10-10 16:41:00,64.0,59.0,30.19,ESE,112,10.5,13.0,83,0.00,,,0.00,Rainwise IP-100,2013-10-10 20:41:00,
2013-10-10 16:46:00,64.0,59.0,30.19,ESE,112,10.3,15.0,84,0.00,,,0.00,Rainwise IP-100,2013-10-10 20:46:00,
2013-10-10 16:51:00,63.9,59.0,30.19,ENE,67,14.5,17.0,84,0.00,,,0.00,Rainwise IP-100,2013-10-10 20:51:00,
2013-10-10 16:56:00,63.9,59.0,30.18,ENE,67,6.8,17.0,84,0.00,,,0.00,Rainwise IP-100,2013-10-10 20:56:00,
2013-10-10 17:01:00,63.9,59.0,30.18,ESE,112,11.7,16.0,83,0.00,,,0.00,Rainwise IP-100,2013-10-10 21:01:00,
2013-10-10 17:06:00,64.0,58.0,30.19,ESE,112,7.9,21.0,82,0.00,,,0.00,Rainwise IP-100,2013-10-10 21:06:00,
2013-10-10 17:11:00,63.9,58.0,30.19,ENE,67,7.7,14.0,82,0.00,,,0.00,Rainwise IP-100,2013-10-10 21:11:00,
2013-10-10 17:16:00,63.8,57.0,30.18,ESE,112,9.6,19.0,82,0.00,,,0.00,Rainwise IP-100,2013-10-10 21:16:00,
2013-10-10 17:21:00,63.7,57.0,30.18,NE,45,4.7,16.0,82,0.00,,,0.00,Rainwise IP-100,2013-10-10 21:21:00,
2013-10-10 17:26:00,63.6,57.0,30.18,ESE,112,8.4,12.0,82,0.00,,,0.00,Rainwise IP-100,2013-10-10 21:26:00,
2013-10-10 17:31:00,63.5,57.0,30.18,East,90,7.7,13.0,82,0.00,,,0.00,Rainwise IP-100,2013-10-10 21:31:00,
2013-10-10 17:36:00,63.4,58.0,30.18,ESE,112,7.9,18.0,83,0.00,,,0.00,Rainwise IP-100,2013-10-10 21:36:00,
2013-10-10 17:41:00,63.3,57.0,30.18,SE,135,11.2,18.0,82,0.00,,,0.00,Rainwise IP-100,2013-10-10 21:41:00,
2013-10-10 17:46:00,63.3,57.0,30.18,ESE,112,6.1,16.0,82,0.00,,,0.00,Rainwise IP-100,2013-10-10 21:46:00,
2013-10-10 17:51:00,63.1,57.0,30.18,ESE,112,4.7,23.0,82,0.00,,,0.00,Rainwise IP-100,2013-10-10 21:51:00,
2013-10-10 17:56:00,63.0,57.0,30.19,ESE,112,7.7,18.0,83,0.00,,,0.00,Rainwise IP-100,2013-10-10 21:56:00,
2013-10-10 18:01:00,63.0,57.0,30.19,ESE,112,4.4,15.0,83,0.00,,,0.00,Rainwise IP-100,2013-10-10 22:01:00,
2013-10-10 18:06:00,63.0,57.0,30.19,ENE,67,13.1,14.0,83,0.00,,,0.00,Rainwise IP-100,2013-10-10 22:06:00,
2013-10-10 18:11:00,63.0,57.0,30.19,ESE,112,6.1,14.0,83,0.00,,,0.00,Rainwise IP-100,2013-10-10 22:11:00,
2013-10-10 18:16:00,62.9,58.0,30.19,ESE,112,8.2,15.0,84,0.00,,,0.00,Rainwise IP-100,2013-10-10 22:16:00,
2013-10-10 18:21:00,62.9,58.0,30.19,East,90,5.8,14.0,84,0.00,,,0.00,Rainwise IP-100,2013-10-10 22:21:00,
2013-10-10 18:26:00,62.8,57.0,30.19,ESE,112,12.1,12.1,84,0.00,,,0.00,Rainwise IP-100,2013-10-10 22:26:00,
2013-10-10 18:31:00,62.8,57.0,30.20,East,90,5.4,13.0,84,0.00,,,0.00,Rainwise IP-100,2013-10-10 22:31:00,
2013-10-10 18:36:00,62.7,57.0,30.20,ESE,112,7.0,10.0,84,0.00,,,0.00,Rainwise IP-100,2013-10-10 22:36:00,
2013-10-10 18:41:00,62.7,57.0,30.19,ESE,112,7.0,11.0,84,0.00,,,0.00,Rainwise IP-100,2013-10-10 22:41:00,
2013-10-10 18:46:00,62.6,57.0,30.20,ENE,67,7.0,12.0,84,0.00,,,0.00,Rainwise IP-100,2013-10-10 22:46:00,
2013-10-10 18:51:00,62.6,57.0,30.20,ESE,112,6.3,13.0,85,0.00,,,0.00,Rainwise IP-100,2013-10-10 22:51:00,
2013-10-10 18:56:00,62.5,57.0,30.20,ESE,112,10.7,11.0,85,0.00,,,0.00,Rainwise IP-100,2013-10-10 22:56:00,
2013-10-10 19:01:00,62.4,57.0,30.20,ESE,112,8.2,13.0,85,0.00,,,0.00,Rainwise IP-100,2013-10-10 23:01:00,
2013-10-10 19:06:00,62.4,57.0,30.20,ESE,112,5.1,12.0,85,0.00,,,0.00,Rainwise IP-100,2013-10-10 23:06:00,
2013-10-10 19:11:00,62.4,57.0,30.20,ENE,67,6.1,17.0,85,0.00,,,0.00,Rainwise IP-100,2013-10-10 23:11:00,
2013-10-10 19:16:00,62.4,57.0,30.20,SE,135,7.7,16.0,85,0.00,,,0.00,Rainwise IP-100,2013-10-10 23:16:00,
2013-10-10 19:21:00,62.4,57.0,30.20,SSE,157,4.0,13.0,84,0.00,,,0.00,Rainwise IP-100,2013-10-10 23:21:00,
2013-10-10 19:26:00,62.3,57.0,30.20,ESE,112,8.4,14.0,84,0.00,,,0.00,Rainwise IP-100,2013-10-10 23:26:00,
2013-10-10 19:31:00,62.3,57.0,30.19,ESE,112,9.6,16.0,84,0.00,,,0.00,Rainwise IP-100,2013-10-10 23:31:00,
2013-10-10 19:36:00,62.2,57.0,30.20,ESE,112,8.9,13.0,84,0.00,,,0.00,Rainwise IP-100,2013-10-10 23:36:00,
2013-10-10 19:41:00,62.1,57.0,30.19,ESE,112,7.9,16.0,85,0.00,,,0.00,Rainwise IP-100,2013-10-10 23:41:00,
2013-10-10 19:46:00,62.0,57.0,30.19,ESE,112,5.8,14.0,85,0.00,,,0.00,Rainwise IP-100,2013-10-10 23:46:00,
2013-10-10 19:51:00,61.8,57.0,30.19,ESE,112,10.7,17.0,85,0.00,,,0.00,Rainwise IP-100,2013-10-10 23:51:00,
2013-10-10 19:56:00,61.7,57.0,30.19,ESE,112,10.3,17.0,85,0.00,,,0.00,Rainwise IP-100,2013-10-10 23:56:00,
2013-10-10 20:01:00,61.7,57.0,30.19,ESE,112,9.6,16.0,85,0.00,,,0.00,Rainwise IP-100,2013-10-11 00:01:00,
2013-10-10 20:06:00,61.7,57.0,30.19,ESE,112,11.4,14.0,85,0.00,,,0.00,Rainwise IP-100,2013-10-11 00:06:00,
2013-10-10 20:11:00,61.7,57.0,30.19,ENE,67,3.7,18.0,85,0.00,,,0.00,Rainwise IP-100,2013-10-11 00:11:00,
2013-10-10 20:16:00,61.6,57.0,30.19,ESE,112,4.4,18.0,85,0.00,,,0.00,Rainwise IP-100,2013-10-11 00:16:00,
2013-10-10 20:21:00,61.5,57.0,30.19,ESE,112,7.5,19.0,85,0.00,,,0.00,Rainwise IP-100,2013-10-11 00:21:00,
2013-10-10 20:26:00,61.5,57.0,30.19,ENE,67,8.9,17.0,85,0.00,,,0.00,Rainwise IP-100,2013-10-11 00:26:00,
2013-10-10 20:31:00,61.4,57.0,30.19,ESE,112,4.7,15.0,85,0.00,,,0.00,Rainwise IP-100,2013-10-11 00:31:00,
2013-10-10 20:36:00,61.3,56.0,30.19,ENE,67,7.2,18.0,85,0.00,,,0.00,Rainwise IP-100,2013-10-11 00:36:00,
2013-10-10 20:41:00,61.2,56.0,30.18,ENE,67,11.2,17.0,85,0.00,,,0.00,Rainwise IP-100,2013-10-11 00:41:00,
2013-10-10 20:46:00,61.2,56.0,30.18,ESE,112,9.3,15.0,86,0.00,,,0.00,Rainwise IP-100,2013-10-11 00:46:00,
2013-10-10 20:51:00,61.1,56.0,30.19,ESE,112,11.9,17.0,86,0.00,,,0.00,Rainwise IP-100,2013-10-11 00:51:00,
2013-10-10 20:56:00,61.1,56.0,30.19,East,90,11.9,16.0,86,0.00,,,0.00,Rainwise IP-100,2013-10-11 00:56:00,
2013-10-10 21:01:00,61.0,56.0,30.19,SE,135,9.6,18.0,86,0.00,,,0.00,Rainwise IP-100,2013-10-11 01:01:00,
2013-10-10 21:06:00,60.9,56.0,30.19,ESE,112,13.1,17.0,86,0.00,,,0.00,Rainwise IP-100,2013-10-11 01:06:00,
2013-10-10 21:11:00,61.0,56.0,30.19,East,90,8.2,16.0,86,0.00,,,0.00,Rainwise IP-100,2013-10-11 01:11:00,
2013-10-10 21:16:00,60.9,56.0,30.19,East,90,3.7,14.0,86,0.00,,,0.00,Rainwise IP-100,2013-10-11 01:16:00,
2013-10-10 21:21:00,60.9,56.0,30.19,ENE,67,9.6,14.0,86,0.00,,,0.00,Rainwise IP-100,2013-10-11 01:21:00,
2013-10-10 21:26:00,60.8,56.0,30.19,East,90,8.6,14.0,86,0.00,,,0.00,Rainwise IP-100,2013-10-11 01:26:00,
2013-10-10 21:31:00,60.8,56.0,30.19,East,90,8.6,19.0,86,0.00,,,0.00,Rainwise IP-100,2013-10-11 01:31:00,
2013-10-10 21:36:00,60.8,56.0,30.18,SE,135,7.7,18.0,86,0.00,,,0.00,Rainwise IP-100,2013-10-11 01:36:00,
2013-10-10 21:41:00,60.8,56.0,30.18,ESE,112,7.2,19.0,86,0.00,,,0.00,Rainwise IP-100,2013-10-11 01:41:00,
2013-10-10 21:46:00,60.8,56.0,30.19,NE,45,4.0,18.0,86,0.00,,,0.00,Rainwise IP-100,2013-10-11 01:46:00,
2013-10-10 21:51:00,60.8,56.0,30.18,ESE,112,13.1,19.0,86,0.00,,,0.00,Rainwise IP-100,2013-10-11 01:51:00,
2013-10-10 21:56:00,60.7,56.0,30.18,ENE,67,13.1,18.0,86,0.00,,,0.00,Rainwise IP-100,2013-10-11 01:56:00,
2013-10-10 22:01:00,60.7,56.0,30.18,ESE,112,12.6,18.0,86,0.00,,,0.00,Rainwise IP-100,2013-10-11 02:01:00,
2013-10-10 22:06:00,60.7,56.0,30.18,ENE,67,11.0,15.0,87,0.00,,,0.00,Rainwise IP-100,2013-10-11 02:06:00,
2013-10-10 22:11:00,60.6,56.0,30.18,East,90,3.0,16.0,87,0.00,,,0.00,Rainwise IP-100,2013-10-11 02:11:00,
2013-10-10 22:16:00,60.6,56.0,30.18,East,90,15.6,24.0,87,0.00,,,0.00,Rainwise IP-100,2013-10-11 02:16:00,
2013-10-10 22:21:00,60.5,56.0,30.18,ENE,67,7.9,18.0,87,0.00,,,0.00,Rainwise IP-100,2013-10-11 02:21:00,
2013-10-10 22:26:00,60.4,56.0,30.18,East,90,12.4,19.0,87,0.00,,,0.00,Rainwise IP-100,2013-10-11 02:26:00,
2013-10-10 22:31:00,60.3,56.0,30.18,SE,135,3.7,18.0,87,0.00,,,0.00,Rainwise IP-100,2013-10-11 02:31:00,
2013-10-10 22:36:00,60.2,56.0,30.18,ESE,112,11.2,19.0,87,0.00,,,0.00,Rainwise IP-100,2013-10-11 02:36:00,
2013-10-10 22:41:00,60.1,56.0,30.17,East,90,9.1,15.0,87,0.00,,,0.00,Rainwise IP-100,2013-10-11 02:41:00,
2013-10-10 22:46:00,60.0,56.0,30.17,East,90,16.1,20.0,87,0.00,,,0.00,Rainwise IP-100,2013-10-11 02:46:00,
2013-10-10 22:51:00,59.9,56.0,30.17,ESE,112,9.1,19.0,87,0.00,,,0.00,Rainwise IP-100,2013-10-11 02:51:00,
2013-10-10 22:56:00,59.9,56.0,30.17,ESE,112,4.2,23.0,87,0.00,,,0.00,Rainwise IP-100,2013-10-11 02:56:00,
2013-10-10 23:01:00,59.9,56.0,30.16,ENE,67,7.9,19.0,88,0.00,,,0.00,Rainwise IP-100,2013-10-11 03:01:00,
2013-10-10 23:06:00,59.9,56.0,30.17,East,90,9.6,22.0,88,0.00,,,0.00,Rainwise IP-100,2013-10-11 03:06:00,
2013-10-10 23:11:00,59.8,56.0,30.17,East,90,4.4,18.0,88,0.00,,,0.00,Rainwise IP-100,2013-10-11 03:11:00,
2013-10-10 23:16:00,59.8,56.0,30.17,ESE,112,8.4,17.0,88,0.00,,,0.00,Rainwise IP-100,2013-10-11 03:16:00,
2013-10-10 23:21:00,59.8,56.0,30.16,East,90,9.8,15.0,88,0.00,,,0.00,Rainwise IP-100,2013-10-11 03:21:00,
2013-10-10 23:26:00,59.8,56.0,30.16,East,90,13.5,19.0,88,0.00,,,0.00,Rainwise IP-100,2013-10-11 03:26:00,
2013-10-10 23:31:00,59.8,56.0,30.16,ESE,112,13.1,14.0,88,0.00,,,0.00,Rainwise IP-100,2013-10-11 03:31:00,
2013-10-10 23:36:00,59.8,56.0,30.16,NE,45,7.0,21.0,88,0.00,,,0.00,Rainwise IP-100,2013-10-11 03:36:00,
2013-10-10 23:41:00,59.8,56.0,30.16,East,90,3.3,16.0,89,0.00,,,0.00,Rainwise IP-100,2013-10-11 03:41:00,
2013-10-10 23:46:00,59.8,56.0,30.16,ENE,67,7.2,16.0,89,0.00,,,0.00,Rainwise IP-100,2013-10-11 03:46:00,
2013-10-10 23:51:00,59.8,56.0,30.16,ESE,112,8.2,15.0,89,0.00,,,0.00,Rainwise IP-100,2013-10-11 03:51:00,
2013-10-10 23:56:00,59.9,56.0,30.16,East,90,9.6,18.0,89,0.00,,,0.00,Rainwise IP-100,2013-10-11 03:56:00,